Ukiah, CA

8:56 PM PDT on April 22, 2018 (GMT -0700)
Ukiah Municipal

Weather History for KUKI - October, 2012

Change the Weather History Date:

Tuesday, October 16, 2012

  Actual Average Record
Temperature  
Mean Temperature 72 °F 60 °F  
Max Temperature 82 °F 77 °F 97 °F (1933)
Min Temperature 62 °F 44 °F 33 °F (1938)
Degree Days  
Heating Degree Days 0 5  
Month to date heating degree days 57  
Since 1 July heating degree days 90  
Cooling Degree Days 4 0  
Month to date cooling degree days 19  
Year to date cooling degree days 832  
Growing Degree Days 19 (Base 50)    
Moisture  
Dew Point 57 °F    
Average Humidity 66    
Maximum Humidity 90    
Minimum Humidity 42    
Precipitation  
Precipitation 0.00 in 0.07 in 2.01 in (1947)
Month to date precipitation T 0.50  
Year to date precipitation 18.92 24.47  
Since 1 July precipitation T  
Snow  
Snow 0.00 in - - ()
Month to date snowfall 0.0  
Since 1 July snowfall 0.0  
Since 1 September snowfall 0.0  
Snow Depth -    
Sea Level Pressure  
Sea Level Pressure 29.97 in    
Wind  
Wind Speed 4 mph (NNW)    
Max Wind Speed 20 mph    
Max Gust Speed 25 mph    
Visibility 10 miles    
Events      
T = Trace of Precipitation, MM = Missing Value Source: NWS Daily Summary

Daily Weather History Graph

Daily Weather History Graph

Search for Another Location

Airport or City:

Astronomy

Oct. 16, 2012 Rise Set
Actual Time 7:24 AM PDT 6:31 PM PDT
Civil Twilight 6:57 AM PDT 6:58 PM PDT
Nautical Twilight 6:25 AM PDT 7:29 PM PDT
Astronomical Twilight 5:55 AM PDT 8:00 PM PDT
Moon 8:52 AM PDT (10/16) 7:21 PM PDT (10/16)
Length of Visible Light 12h 01m
Length of Day
11h 07m
New Moon, 2% of the Moon is Illuminated
Oct 16
New Moon
Oct 21
First Quarter
Oct 29
Full
Nov 6
Last Quarter
Nov 13
New

Hourly Weather History & Observations

Time (PDT) Temp. Heat Index Dew Point Humidity Pressure Visibility Wind Dir Wind Speed Gust Speed Precip Events Conditions
12:56 AM 64.0 °F - 59.0 °F 84% 30.01 in 10.0 mi Calm Calm - N/A   Clear
1:56 AM 63.0 °F - 57.9 °F 84% 30.02 in 10.0 mi Calm Calm - N/A   Clear
3:56 AM 64.9 °F - 60.1 °F 84% 30.00 in 10.0 mi Calm Calm - N/A   Overcast
5:45 AM 64.4 °F - 60.8 °F 88% 30.01 in 10.0 mi Calm Calm - N/A   Overcast
5:56 AM 64.9 °F - 60.1 °F 84% 30.00 in 10.0 mi Calm Calm - N/A   Overcast
6:23 AM 64.4 °F - 60.8 °F 88% 30.02 in 10.0 mi Calm Calm - N/A   Scattered Clouds
6:56 AM 64.0 °F - 60.1 °F 87% 30.00 in 10.0 mi Calm Calm - N/A   Mostly Cloudy
7:56 AM 64.9 °F - 60.1 °F 84% 30.01 in 10.0 mi Calm Calm - N/A   Overcast
9:56 AM 72.0 °F - 61.0 °F 68% 30.02 in 10.0 mi Calm Calm - N/A   Mostly Cloudy
10:20 AM 73.4 °F - 60.8 °F 65% 30.03 in 10.0 mi NNW 4.6 mph - N/A   Scattered Clouds
10:56 AM 75.9 °F - 62.1 °F 62% 30.01 in 10.0 mi NNE 4.6 mph - N/A   Clear
11:56 AM 79.0 °F - 61.0 °F 54% 29.99 in 10.0 mi NNW 9.2 mph - N/A   Scattered Clouds
12:56 PM 81.0 °F 81.3 °F 59.0 °F 47% 29.97 in 10.0 mi NNW 12.7 mph - N/A   Clear
1:56 PM 80.1 °F 80.2 °F 55.9 °F 43% 29.94 in 10.0 mi WNW 12.7 mph - N/A   Clear
2:56 PM 80.1 °F 80.2 °F 55.9 °F 43% 29.91 in 10.0 mi WNW 15.0 mph 20.7 mph N/A   Clear
3:56 PM 81.0 °F 80.7 °F 55.0 °F 41% 29.91 in 10.0 mi West 10.4 mph - N/A   Clear
4:56 PM 80.1 °F 80.1 °F 55.0 °F 42% 29.90 in 10.0 mi WNW 8.1 mph - N/A   Clear
5:56 PM 73.9 °F - 55.0 °F 52% 29.90 in 10.0 mi NNE 9.2 mph - N/A   Clear
6:56 PM 70.0 °F - 53.1 °F 55% 29.91 in 10.0 mi NE 5.8 mph - N/A   Clear
7:56 PM 66.9 °F - 52.0 °F 59% 29.93 in 10.0 mi North 4.6 mph - N/A   Clear
8:56 PM 64.0 °F - 52.0 °F 65% 29.95 in 10.0 mi Calm Calm - N/A   Clear
9:56 PM 61.0 °F - 51.1 °F 70% 29.96 in 10.0 mi Calm Calm - N/A   Clear
10:56 PM 57.9 °F - 50.0 °F 75% 29.97 in 10.0 mi NNW 3.5 mph - N/A   Clear
11:56 PM 57.0 °F - 50.0 °F 77% 29.97 in 10.0 mi Calm Calm - N/A   Clear